KOSEN-1 (49402 NORAD) Tracking and Keplerian Element Data

This shows tracking and keplerian element data for the satellite.

Feedback or suggestion? Click here.




ElementValue
Catalog49402
NameKOSEN-1
Epoch Orbit1022
Epoch Day16.12620044
Epoch Year2022
RAAN78.9997
Inclination97.5516
Eccentricity0.0022953
Argument of Perigee19.9164
Mean Anonmoly340.2952
Mean Motion15.02917445
Decay Rate1.715E-05
L11 49402U 21102H 22016.12620044 .00001715 00000+0 13151-3 0 9992
L22 49402 97.5516 78.9997 0022953 19.9164 340.2952 15.02917445 10222

Live tracking and technical data element details for KOSEN-1 (NORAD 49402). KOSEN-1 can be tracked NOW for your location showing map with azimuth and elevation plus other details from your city location.

Track the satellite on the map from your city or location and see movement details for azimuth, elevation, latitude, longitude, range, height, and movement on the map or in text.







IsCatalogInMostPopularTable: catalog: 49402, numindb: 10
Update: records affected: 1



GetName: 49402 KOSEN-1

Hit Count: updated at: Thu, 20 Jan 2022 16:26:02 GMT